Total_Precipitation_Accumulation
0.63 0.86 1.12 1.06 0.98 1.06 1.11 1.22 1.25 1.16 0.89 0.93 0.96 0.85 0.83 0.85 0.86 0.79 0.69 0.58 0.56 0.58 0.56 0.54 0.59 0.65 0.67 0.71 0.73 0.74 0.72 0.78 0.82 0.86 0.99 1.23 1.50 1.61 1.71 1.62 1.40 1.34 1.48 1.78
0.71 0.77 0.66 0.62 0.71 0.91 1.06 1.27 1.24 1.11 0.79 0.75 0.81 0.75 0.67 0.68 0.74 0.64 0.60 0.58 0.52 0.52 0.48 0.45 0.48 0.53 0.56 0.59 0.65 0.70 0.69 0.76 0.79 0.83 1.01 1.19 1.34 1.36 1.51 1.62 1.56 1.48 1.46 1.65
0.69 0.64 0.51 0.55 0.70 0.93 1.04 1.07 1.04 1.02 0.83 0.74 0.74 0.81 0.63 0.57 0.60 0.55 0.49 0.50 0.46 0.47 0.48 0.46 0.45 0.49 0.50 0.50 0.51 0.55 0.59 0.67 0.79 0.90 1.11 1.34 1.57 1.65 1.66 1.55 1.62 1.63 1.53 1.60
0.62 0.51 0.50 0.62 0.70 0.78 0.98 0.71 0.65 0.73 0.94 1.02 0.83 1.06 0.74 0.61 0.65 0.57 0.47 0.43 0.40 0.43 0.46 0.55 0.51 0.51 0.48 0.48 0.50 0.53 0.62 0.76 0.95 1.13 1.34 1.57 1.76 1.81 1.68 1.66 1.69 1.58 1.49 1.47
0.56 0.46 0.47 0.61 0.58 0.56 0.66 0.55 0.54 0.63 0.85 0.85 0.65 0.79 0.72 0.60 0.72 0.65 0.53 0.46 0.41 0.40 0.44 0.48 0.49 0.53 0.55 0.58 0.65 0.70 0.84 1.06 1.31 1.50 1.75 2.03 1.99 1.87 1.77 1.71 1.67 1.62 1.60 1.56
0.47 0.38 0.43 0.46 0.45 0.44 0.47 0.56 0.64 0.72 0.92 0.92 0.57 0.67 0.74 0.57 0.60 0.65 0.59 0.50 0.42 0.38 0.45 0.55 0.63 0.74 0.83 0.87 1.05 1.26 1.47 1.61 1.70 1.81 1.94 2.05 2.01 2.01 1.94 1.74 1.64 1.61 1.66 1.72
0.50 0.40 0.34 0.32 0.44 0.45 0.49 0.85 1.24 1.27 1.24 0.89 0.45 0.65 0.73 0.53 0.45 0.51 0.53 0.44 0.38 0.40 0.50 0.66 0.85 0.99 1.14 1.31 1.49 1.62 1.77 1.92 1.87 1.82 1.86 1.89 1.88 1.85 1.84 1.76 1.68 1.61 1.59 1.65
0.57 0.54 0.34 0.28 0.36 0.49 0.53 0.79 1.28 1.42 1.17 0.81 0.59 0.86 0.80 0.57 0.45 0.40 0.33 0.30 0.40 0.55 0.68 0.81 0.89 1.03 1.22 1.43 1.53 1.54 1.62 1.75 1.74 1.69 1.66 1.65 1.69 1.69 1.64 1.55 1.51 1.55 1.63 1.61
0.42 0.43 0.23 0.22 0.27 0.36 0.52 0.58 0.64 0.92 0.78 0.76 0.78 0.91 0.81 0.54 0.46 0.41 0.36 0.38 0.54 0.75 0.95 1.12 1.24 1.37 1.43 1.51 1.61 1.51 1.51 1.59 1.60 1.55 1.50 1.54 1.52 1.56 1.56 1.47 1.46 1.45 1.45 1.37
0.27 0.33 0.22 0.20 0.27 0.30 0.42 0.55 0.75 1.10 1.25 1.21 1.06 1.05 0.95 0.72 0.61 0.64 0.70 0.78 0.83 0.93 1.19 1.50 1.79 1.96 1.81 1.58 1.52 1.50 1.43 1.44 1.54 1.57 1.51 1.49 1.57 1.57 1.53 1.51 1.44 1.41 1.43 1.33
0.21 0.33 0.30 0.27 0.31 0.34 0.43 0.60 0.78 1.03 1.15 1.45 1.63 1.51 1.14 1.13 1.12 1.16 1.24 1.27 1.28 1.37 1.35 1.52 1.76 1.95 1.89 1.58 1.35 1.38 1.46 1.47 1.50 1.51 1.52 1.52 1.50 1.40 1.38 1.40 1.36 1.32 1.33 1.36
0.18 0.30 0.35 0.28 0.29 0.36 0.53 0.68 0.89 1.28 1.21 1.19 1.49 1.53 1.19 1.17 1.20 1.28 1.43 1.47 1.47 1.38 1.28 1.28 1.35 1.42 1.50 1.40 1.20 1.15 1.30 1.43 1.43 1.42 1.45 1.45 1.35 1.25 1.24 1.24 1.16 1.03 0.96 0.96
0.23 0.37 0.51 0.51 0.58 0.57 0.75 0.81 0.71 0.76 0.91 1.04 1.32 1.24 0.83 0.75 0.92 1.09 1.24 1.32 1.25 1.22 1.32 1.29 1.19 1.11 1.16 1.16 1.11 1.08 1.21 1.38 1.47 1.46 1.34 1.23 1.17 1.14 1.17 1.10 1.02 0.94 0.82 0.77
0.24 0.32 0.43 0.61 0.63 0.61 0.78 0.87 0.75 0.73 0.91 0.87 0.83 0.76 0.59 0.60 0.75 0.85 0.89 0.89 0.91 1.01 1.08 1.04 0.99 0.90 0.87 0.92 0.96 1.01 1.14 1.24 1.39 1.53 1.43 1.29 1.20 1.17 1.14 1.09 1.05 0.96 0.89 0.85
0.20 0.22 0.20 0.22 0.25 0.34 0.53 0.63 0.56 0.50 0.50 0.60 0.54 0.53 0.58 0.65 0.72 0.69 0.65 0.65 0.66 0.69 0.73 0.78 0.82 0.78 0.69 0.67 0.65 0.74 0.91 1.07 1.28 1.54 1.55 1.39 1.32 1.29 1.16 1.09 1.09 1.04 1.03 0.95
0.18 0.20 0.17 0.15 0.16 0.22 0.33 0.37 0.31 0.26 0.33 0.45 0.49 0.56 0.59 0.65 0.71 0.65 0.57 0.51 0.46 0.47 0.53 0.60 0.66 0.72 0.62 0.53 0.53 0.53 0.64 0.85 1.03 1.23 1.33 1.32 1.24 1.13 1.09 1.10 1.06 0.99 0.96 0.91
0.18 0.21 0.24 0.17 0.16 0.21 0.29 0.26 0.27 0.31 0.34 0.40 0.53 0.64 0.64 0.74 0.92 0.83 0.66 0.58 0.47 0.40 0.38 0.43 0.47 0.55 0.58 0.53 0.50 0.53 0.58 0.68 0.82 0.98 1.09 1.10 1.04 0.94 0.95 1.00 0.96 0.90 0.84 0.83
0.14 0.24 0.34 0.30 0.33 0.46 0.39 0.28 0.35 0.46 0.42 0.44 0.55 0.60 0.67 0.98 1.17 0.80 0.57 0.53 0.46 0.39 0.36 0.38 0.43 0.46 0.47 0.48 0.50 0.51 0.52 0.55 0.61 0.70 0.78 0.82 0.86 0.83 0.83 0.87 0.88 0.91 0.86 0.78
0.10 0.24 0.41 0.44 0.47 0.63 0.51 0.30 0.42 0.49 0.47 0.39 0.49 0.55 0.56 0.60 0.54 0.36 0.25 0.26 0.30 0.26 0.25 0.25 0.27 0.30 0.34 0.37 0.40 0.42 0.47 0.50 0.49 0.50 0.54 0.59 0.64 0.71 0.77 0.78 0.81 0.93 0.94 0.86
0.10 0.18 0.37 0.42 0.46 0.52 0.48 0.27 0.30 0.42 0.54 0.29 0.30 0.32 0.27 0.24 0.26 0.26 0.22 0.17 0.16 0.15 0.16 0.16 0.16 0.18 0.23 0.28 0.31 0.35 0.40 0.45 0.46 0.46 0.48 0.53 0.54 0.60 0.71 0.80 0.83 0.81 0.77 0.80
0.15 0.21 0.31 0.35 0.37 0.30 0.25 0.23 0.28 0.54 0.57 0.26 0.23 0.22 0.19 0.20 0.20 0.24 0.26 0.19 0.16 0.14 0.14 0.15 0.15 0.18 0.21 0.29 0.34 0.35 0.39 0.42 0.44 0.49 0.49 0.51 0.53 0.55 0.61 0.66 0.66 0.67 0.72 0.71
0.23 0.31 0.33 0.34 0.38 0.34 0.23 0.26 0.37 0.38 0.25 0.23 0.25 0.24 0.21 0.18 0.17 0.17 0.20 0.18 0.15 0.13 0.15 0.16 0.17 0.19 0.19 0.24 0.34 0.39 0.43 0.44 0.44 0.45 0.45 0.43 0.43 0.44 0.46 0.50 0.52 0.53 0.61 0.67
0.25 0.32 0.39 0.41 0.39 0.31 0.26 0.29 0.28 0.26 0.25 0.23 0.26 0.24 0.23 0.21 0.18 0.16 0.15 0.14 0.12 0.13 0.16 0.18 0.19 0.24 0.27 0.25 0.31 0.38 0.45 0.47 0.45 0.43 0.39 0.41 0.40 0.40 0.37 0.40 0.46 0.53 0.55 0.57
0.22 0.20 0.27 0.32 0.28 0.24 0.23 0.22 0.23 0.24 0.24 0.22 0.23 0.23 0.24 0.25 0.21 0.17 0.15 0.14 0.13 0.13 0.16 0.21 0.26 0.29 0.34 0.33 0.34 0.38 0.43 0.45 0.43 0.39 0.36 0.38 0.40 0.40 0.38 0.38 0.41 0.44 0.47 0.48
0.23 0.22 0.24 0.27 0.23 0.20 0.19 0.19 0.17 0.17 0.17 0.18 0.19 0.19 0.21 0.22 0.21 0.18 0.15 0.15 0.14 0.13 0.16 0.21 0.29 0.32 0.33 0.37 0.41 0.44 0.42 0.40 0.40 0.37 0.35 0.34 0.39 0.41 0.40 0.39 0.41 0.43 0.45 0.54
0.18 0.24 0.30 0.31 0.22 0.22 0.19 0.15 0.13 0.14 0.13 0.16 0.19 0.18 0.16 0.17 0.16 0.16 0.16 0.17 0.15 0.14 0.18 0.22 0.27 0.31 0.34 0.38 0.41 0.43 0.40 0.34 0.35 0.37 0.36 0.34 0.33 0.35 0.38 0.41 0.41 0.46 0.48 0.57